Find Biomass

NORAD ID: 63772 Int'l Des: 2025-090 Owner: ESA Country: I-ESA operational
LEOCIRCULARRETROGRADESSO

リアルタイム位置

3D地球を読み込み中...

Biomassについて

説明を読み込み中...

次回通過

Passes for default location (London). Set your location on the main map for personalized predictions.

高度履歴

Loading altitude history...

軌道要素

1 63772U 25090A 26106.94045801 .00000755 00000-0 14340-3 0 9999
2 63772 98.0750 295.1436 0001223 88.8459 271.2885 14.66975400 51704
Epoch: Apr 16, 2026 • Age: 11 hours

現在のステータス

高度 673.2 km
速度 7.52 km/s
衛星直下点 4.49°N, 61.33°W
打ち上げ日 Apr 29, 2025
運用期間 0.9 years
タイプ other

技術仕様

分類 Payload
質量 1131.00 kg
乾燥質量 1099.00 kg
総質量 1131.00 kg
長さ 4.00 m
直径 2.00 m
スパン 12.00 m
形状 Box+pan+dish
製造者 ADSUK
バスタイプ Biomass
フェーズステータス In Orbit
所有者/国 ESA/I-ESA

Most Searched